Home > Time Zones > World Clock > Weather > France > Caen > Past weeks

Flag for France Weather past 2 weeks in Caen, France

Now
63 °F

Broken clouds.


Feels Like: 63 °F
Forecast: 55 / 67 °F
Wind: 12 mph from West

Location: Caen Airport

Current Time: Aug 30, 2014 at 8:51:48 PM

Latest Report: Aug 30, 2014 at 7:30 PM


Visibility: N/A

Pressure: 30.09 "Hg

Humidity: 83%

Dew point: 57 °F

Location of CaenLocation

Historic Weather in Caen — Graph

°F

Caen temperature yesterday

Maximum temperature yesterday: 70 °F (at 3:30 PM)
Minimum temperature yesterday: 54 °F (at 6:00 AM)
Average temperature yesterday: 62 °F

Past Weeks' High & Low Weather Summary

 TemperatureHumidityPressure
High72 °F (Aug 16, 4:00 PM)100% (Aug 27, 5:30 AM)30.24 "Hg (Aug 27, 5:30 AM)
Low46 °F (Aug 20, 4:30 AM)40% (Aug 21, 5:00 PM)29.62 "Hg (Aug 26, 4:30 AM)
Average59 °F80%29.99 "Hg
* Reported Aug 15 7:00 PM — Aug 30 7:00 PM, Caen, Weather by CustomWeather, © 2014

Note: Actual official high and low records may vary slightly from our data, if they occured in-between our weather recording intervals... More about our weather records

Advertising

Caen weather history for previous 24 hours

 ConditionsComfort  
Time TempWeatherWind HumidityBarometerVisibility
7:00 PM
Aug 30
63 °FPartly sunny.10 mph88%30.09 "HgN/A
6:30 PM63 °FBroken clouds.12 mph88%30.09 "HgN/A
6:00 PM61 °FLight rain. Broken clouds.14 mph94%30.09 "Hg5 mi
5:30 PM63 °FLight rain. Fog.13 mph88%30.09 "Hg1 mi
5:00 PM63 °FMostly cloudy.12 mph88%30.09 "HgN/A
4:30 PM63 °FLight rain. Partly sunny.13 mph88%30.09 "HgN/A
4:00 PM63 °FDrizzle. Mostly cloudy.9 mph88%30.09 "HgN/A
3:30 PM64 °FMostly cloudy.13 mph83%30.09 "HgN/A
3:00 PM64 °FBroken clouds.9 mph83%30.09 "HgN/A
2:30 PM64 °FMostly cloudy.12 mph83%30.09 "HgN/A
2:00 PM64 °FPartly sunny.13 mph78%30.09 "HgN/A
1:30 PM63 °FBroken clouds.12 mph88%30.09 "HgN/A
1:00 PM63 °FLight rain. Mostly cloudy.14 mph83%30.12 "Hg4 mi
12:30 PM64 °FMostly cloudy.13 mph78%30.09 "HgN/A
12:00 PM64 °FMostly cloudy.15 mph78%30.09 "HgN/A
11:30 AM64 °FOvercast.14 mph78%30.09 "HgN/A
11:00 AM63 °FOvercast.14 mph83%30.09 "HgN/A
10:30 AM63 °FOvercast.12 mph83%30.09 "HgN/A
10:00 AM61 °FOvercast.13 mph88%30.09 "HgN/A
9:30 AM61 °FOvercast.10 mph88%30.09 "HgN/A
9:00 AM61 °FMostly cloudy.12 mph88%30.09 "HgN/A
8:30 AM61 °FOvercast.12 mph83%30.09 "HgN/A
8:00 AM61 °FOvercast.12 mph83%30.09 "HgN/A
7:30 AM61 °FOvercast.9 mph88%30.07 "HgN/A
7:00 AM61 °FMostly cloudy.12 mph88%30.07 "HgN/A
6:30 AM61 °FMostly cloudy.10 mph88%30.07 "HgN/A
6:00 AM61 °FMostly cloudy.10 mph83%30.07 "HgN/A
5:30 AM61 °FOvercast.8 mph88%30.07 "HgN/A
5:00 AM61 °FMostly cloudy.7 mph88%30.09 "HgN/A
4:30 AM59 °FOvercast.6 mph94%30.09 "HgN/A
4:00 AM59 °FOvercast.6 mph94%30.09 "HgN/A
3:30 AM59 °FMostly cloudy.6 mph94%30.09 "HgN/A
3:00 AM59 °FMostly cloudy.7 mph94%30.09 "HgN/A
2:30 AM59 °FOvercast.6 mph88%30.09 "HgN/A
2:00 AM59 °FPassing clouds.7 mph88%30.09 "HgN/A
1:30 AM57 °FClear.7 mph94%30.09 "HgN/A
1:00 AM57 °FClear.6 mph88%30.09 "HgN/A
12:30 AM57 °FClear.7 mph88%30.09 "HgN/A
12:00 AM57 °FClear.6 mph88%30.09 "HgN/A
11:30 PM
Aug 29
57 °FClear.8 mph88%30.09 "HgN/A
11:00 PM59 °FClear.6 mph82%30.09 "HgN/A
9:00 PM63 °FClear.9 mph73%30.07 "HgN/A
8:30 PM64 °FClear.8 mph73%30.07 "HgN/A
8:00 PM64 °FPassing clouds.12 mph68%30.07 "HgN/A
Weather by CustomWeather, © 2014

See weather overviewHow to use our weather pages